KE0FIN Weather Reports


time (UTC)temp
C
wind
direction
speed
KPH
gust
KPH
rain 1hr
cm
rain 24hr
cm
rain mn
cm
humidity
%
barometer
mb
20260510143943 13 120 0.0 3.2 0.00 0.00 0.00 49 1073.9
20260510143439 13 112 0.0 1.6 0.00 0.00 0.00 51 1073.7
20260510142936 13 102 3.2 3.2 0.00 0.00 0.00 51 1073.7
20260510142427 13 133 1.6 4.8 0.00 0.00 0.00 50 1073.7
20260510141924 13 121 0.0 4.8 0.00 0.00 0.00 51 1073.6
20260510141420 13 121 1.6 3.2 0.00 0.00 0.00 52 1073.5
20260510140917 13 121 0.0 1.6 0.00 0.00 0.00 52 1073.4
20260510140414 13 120 0.0 4.8 0.00 0.00 0.00 51 1073.3
20260510135907 13 129 3.2 4.8 0.00 0.00 0.00 50 1073.1
20260510135404 13 137 1.6 4.8 0.00 0.00 0.00 50 1073.1
20260510134901 13 128 0.0 4.8 0.00 0.00 0.00 50 1073.4
20260510134357 13 132 3.2 4.8 0.00 0.00 0.00 50 1073.4
20260510133853 13 124 0.0 6.4 0.00 0.00 0.00 50 1072.9
20260510133349 14 123 0.0 1.6 0.00 0.00 0.00 52 1073.1
20260510132839 14 134 0.0 1.6 0.00 0.00 0.00 51 1073.0
20260510132337 14 127 1.6 3.2 0.00 0.00 0.00 51 1072.7
20260510131834 14 113 1.6 4.8 0.00 0.00 0.00 52 1072.9
20260510131332 14 131 0.0 1.6 0.00 0.00 0.00 54 1072.5
20260510130828 13 114 0.0 11.3 0.00 0.00 0.00 54 1072.3
20260510130325 13 112 1.6 4.8 0.00 0.00 0.00 55 1072.2
20260510125822 13 122 0.0 1.6 0.00 0.00 0.00 56 1072.1
20260510125317 13 103 3.2 4.8 0.00 0.00 0.00 56 1071.9
20260510124815 13 128 3.2 9.7 0.00 0.00 0.00 57 1071.9
20260510124312 14 114 1.6 3.2 0.00 0.00 0.00 58 1071.7
20260510123807 14 111 1.6 1.6 0.00 0.00 0.00 59 1071.4
20260510123303 14 130 0.0 3.2 0.00 0.00 0.00 60 1071.0
20260510122759 14 132 1.6 4.8 0.00 0.00 0.00 60 1070.8
20260510122255 14 137 0.0 6.4 0.00 0.00 0.00 61 1070.5
20260510121752 14 110 1.6 3.2 0.00 0.00 0.00 61 1070.5
20260510121249 14 118 1.6 6.4 0.00 0.00 0.00 59 1070.5
20260510120747 15 111 3.2 4.8 0.00 0.00 0.00 61 1070.4
20260510120243 15 97 3.2 6.4 0.00 0.00 0.00 58 1070.4
20260510115739 15 124 0.0 1.6 0.00 0.00 0.00 58 1070.0
20260510115237 15 99 0.0 4.8 0.00 0.00 0.00 58 1069.7
20260510114733 15 130 0.0 1.6 0.00 0.00 0.00 61 1069.4
20260510114230 15 133 1.6 3.2 0.00 0.00 0.00 62 1069.2
20260510113725 15 106 3.2 9.7 0.00 0.00 0.00 61 1069.0
20260510113222 15 137 1.6 12.9 0.00 0.00 0.00 61 1068.7
20260510112718 15 107 3.2 3.2 0.00 0.00 0.00 62 1068.7
20260510112215 15 117 1.6 4.8 0.00 0.00 0.00 62 1068.6
20260510111711 15 121 1.6 4.8 0.00 0.00 0.00 63 1068.2
20260510111208 15 102 1.6 6.4 0.00 0.00 0.00 63 1068.2
20260510110702 15 120 1.6 12.9 0.00 0.00 0.00 64 1068.2
20260510110200 15 126 1.6 6.4 0.00 0.00 0.00 64 1068.3
20260510105655 14 69 3.2 6.4 0.00 0.00 0.00 65 1068.3
20260510105155 14 135 3.2 14.5 0.00 0.00 0.00 65 1068.4
20260510104652 14 100 6.4 12.9 0.00 0.00 0.00 66 1068.5
20260510104149 14 122 1.6 4.8 0.00 0.00 0.00 66 1068.4
20260510103646 14 128 3.2 9.7 0.00 0.00 0.00 65 1068.5
20260510103143 14 139 3.2 11.3 0.00 0.00 0.00 65 1068.5
20260510102638 14 65 6.4 11.3 0.00 0.00 0.00 65 1068.4
20260510102134 14 143 0.0 6.4 0.00 0.00 0.00 66 1068.2
20260510101632 14 107 3.2 3.2 0.00 0.00 0.00 66 1068.0
20260510101130 14 69 4.8 9.7 0.00 0.00 0.00 66 1068.0
20260510100625 14 61 8.0 9.7 0.00 0.00 0.00 66 1067.9
20260510100123 15 169 3.2 9.7 0.00 0.00 0.00 66 1067.8
20260510095624 15 124 1.6 9.7 0.00 0.00 0.00 66 1067.7
20260510095119 15 96 1.6 6.4 0.00 0.00 0.00 65 1067.7
20260510094618 15 90 3.2 9.7 0.00 0.00 0.00 65 1067.5
20260510094113 15 142 3.2 6.4 0.00 0.00 0.00 64 1067.5
20260510093610 15 110 4.8 9.7 0.00 0.00 0.00 63 1067.2
20260510093107 15 155 1.6 6.4 0.00 0.00 0.00 63 1067.3
20260510092604 15 113 1.6 4.8 0.00 0.00 0.00 63 1067.3
20260510092103 15 116 4.8 6.4 0.00 0.00 0.00 63 1067.1
20260510091600 15 133 3.2 12.9 0.00 0.00 0.00 63 1067.2
20260510091056 15 91 1.6 4.8 0.00 0.00 0.00 63 1067.0
20260510090554 15 101 3.2 9.7 0.00 0.00 0.00 62 1067.1
20260510090049 15 63 3.2 4.8 0.00 0.00 0.00 62 1067.1
20260510085544 16 81 6.4 9.7 0.00 0.00 0.00 62 1067.0
20260510085040 16 73 6.4 11.3 0.00 0.00 0.00 62 1066.9
20260510084537 16 114 1.6 11.3 0.00 0.00 0.00 61 1067.0
20260510084034 16 88 4.8 6.4 0.00 0.00 0.00 61 1066.8
20260510083530 16 127 1.6 4.8 0.00 0.00 0.00 61 1066.9
20260510083027 16 78 1.6 4.8 0.00 0.00 0.00 61 1066.9
20260510082524 16 79 3.2 6.4 0.00 0.00 0.00 61 1066.8
20260510082019 16 123 1.6 9.7 0.00 0.00 0.00 61 1066.6
20260510081514 16 90 3.2 9.7 0.00 0.00 0.00 61 1066.8
20260510081010 16 119 1.6 6.4 0.00 0.00 0.00 62 1066.6
20260510080509 16 123 1.6 4.8 0.00 0.00 0.00 61 1066.8
20260510080006 16 100 0.0 3.2 0.00 0.00 0.00 61 1066.6
20260510075504 16 99 0.0 1.6 0.00 0.00 0.00 61 1066.6
20260510075000 16 130 0.0 9.7 0.00 0.00 0.00 59 1066.3
20260510074458 17 109 1.6 9.7 0.00 0.00 0.00 59 1066.3
20260510073953 17 123 0.0 9.7 0.00 0.00 0.00 59 1066.3
20260510073449 17 88 3.2 6.4 0.00 0.00 0.00 58 1066.6
20260510072946 17 123 3.2 6.4 0.00 0.00 0.00 58 1066.3
20260510072443 17 125 1.6 4.8 0.00 0.00 0.00 58 1066.3
20260510071938 17 126 0.0 1.6 0.00 0.00 0.00 58 1066.2
20260510071435 17 110 4.8 6.4 0.00 0.00 0.00 58 1066.2
20260510070933 17 116 3.2 4.8 0.00 0.00 0.00 59 1066.0
20260510070430 17 127 0.0 6.4 0.00 0.00 0.00 59 1066.0
20260510065926 17 137 1.6 9.7 0.00 0.00 0.00 59 1066.0
20260510065423 17 132 0.0 4.8 0.00 0.00 0.00 59 1066.0
20260510064919 17 88 1.6 3.2 0.00 0.00 0.00 59 1065.9
20260510064417 17 115 0.0 1.6 0.00 0.00 0.00 59 1065.6
20260510063913 17 123 0.0 6.4 0.00 0.00 0.00 58 1065.5
20260510063409 17 121 0.0 4.8 0.00 0.00 0.00 58 1065.7
20260510062907 17 89 4.8 4.8 0.00 0.00 0.00 57 1065.5
20260510062402 18 121 0.0 4.8 0.00 0.00 0.00 57 1065.6
20260510061858 18 122 1.6 4.8 0.00 0.00 0.00 56 1065.6
20260510061355 18 120 0.0 3.2 0.00 0.00 0.00 56 1065.3
20260510060850 18 133 0.0 3.2 0.00 0.00 0.00 55 1065.2
20260510060347 18 101 3.2 6.4 0.00 0.00 0.00 54 1065.4
20260510055843 18 127 1.6 4.8 0.00 0.00 0.00 54 1065.0
20260510055343 19 108 0.0 4.8 0.00 0.00 0.00 53 1064.9
20260510054837 19 90 0.0 3.2 0.00 0.00 0.00 53 1064.9
20260510054333 19 107 0.0 3.2 0.00 0.00 0.00 52 1065.1
20260510053828 19 117 0.0 6.4 0.00 0.00 0.00 52 1064.9
20260510053323 19 115 0.0 3.2 0.00 0.00 0.00 53 1064.7
20260510052820 18 122 0.0 1.6 0.00 0.00 0.00 53 1064.4
20260510052316 18 123 0.0 3.2 0.00 0.00 0.00 54 1064.3
20260510051812 18 128 0.0 3.2 0.00 0.00 0.00 55 1064.4
20260510051309 18 130 0.0 1.6 0.00 0.00 0.00 55 1064.5
20260510050805 18 120 0.0 1.6 0.00 0.00 0.00 56 1064.4
20260510050257 18 113 3.2 3.2 0.00 0.00 0.00 56 1064.7
20260510045754 18 115 0.0 4.8 0.00 0.00 0.00 57 1064.6
20260510045250 18 119 0.0 1.6 0.00 0.00 0.00 57 1064.8
20260510044747 18 122 0.0 3.2 0.00 0.00 0.00 57 1064.7
20260510044245 18 119 1.6 1.6 0.00 0.00 0.00 58 1064.4
20260510043740 18 122 0.0 3.2 0.00 0.00 0.00 57 1064.6
20260510043237 18 119 0.0 1.6 0.00 0.00 0.00 58 1064.6
20260510042734 18 117 1.6 1.6 0.00 0.00 0.00 58 1064.5
20260510042230 19 115 0.0 0.0 0.00 0.00 0.00 58 1064.4
20260510041727 19 115 0.0 0.0 0.00 0.00 0.00 57 1064.3
20260510041224 19 129 0.0 1.6 0.00 0.00 0.00 57 1064.5
20260510040721 19 113 0.0 1.6 0.00 0.00 0.00 56 1064.5
20260510040218 19 122 0.0 1.6 0.00 0.00 0.00 57 1064.3
20260510035713 18 124 0.0 0.0 0.00 0.00 0.00 59 1063.9
20260510035210 18 117 0.0 1.6 0.00 0.00 0.00 60 1063.9
20260510034705 18 117 0.0 1.6 0.00 0.00 0.00 63 1063.8
20260510034203 18 117 0.0 0.0 0.00 0.00 0.00 64 1064.4
20260510033659 18 118 0.0 0.0 0.00 0.00 0.00 66 1064.3
20260510033157 18 118 0.0 0.0 0.00 0.00 0.00 65 1064.1
20260510032653 19 118 0.0 0.0 0.00 0.00 0.00 65 1064.0
20260510032149 20 118 0.0 0.0 0.00 0.00 0.00 62 1064.1
20260510031643 20 118 0.0 0.0 0.00 0.00 0.00 60 1063.9
20260510031140 20 118 0.0 1.6 0.00 0.00 0.00 59 1063.8
20260510030635 20 119 0.0 0.0 0.00 0.00 0.00 55 1063.7
20260510030133 21 118 0.0 0.0 0.00 0.00 0.00 51 1063.6
20260510025630 21 118 0.0 0.0 0.00 0.00 0.00 51 1063.6
20260510025127 21 118 0.0 0.0 0.00 0.00 0.00 51 1063.3
20260510024624 21 118 0.0 0.0 0.00 0.00 0.00 50 1063.2
20260510024120 21 122 0.0 0.0 0.00 0.00 0.00 50 1063.0
20260510023616 21 127 0.0 0.0 0.00 0.00 0.00 49 1062.9
20260510023114 21 127 0.0 1.6 0.00 0.00 0.00 48 1062.5
20260510022614 22 133 0.0 1.6 0.00 0.00 0.00 47 1062.4
20260510022108 22 128 1.6 1.6 0.00 0.00 0.00 47 1062.2
20260510021604 22 120 0.0 3.2 0.00 0.00 0.00 47 1061.6
20260510021102 22 125 1.6 6.4 0.00 0.00 0.00 46 1060.9
20260510020556 23 143 0.0 3.2 0.00 0.00 0.00 45 1062.0
20260510020052 23 122 1.6 6.4 0.00 0.00 0.00 43 1062.3
20260510015548 23 134 1.6 3.2 0.00 0.00 0.00 43 1063.0
20260510015044 23 138 0.0 1.6 0.00 0.00 0.00 42 1062.7
20260510014541 24 121 0.0 1.6 0.00 0.00 0.00 40 1062.8
20260510014038 25 221 1.6 3.2 0.00 0.00 0.00 39 1062.9
20260510013532 25 270 4.8 9.7 0.00 0.00 0.00 38 1063.2
20260510013028 25 175 1.6 14.5 0.00 0.00 0.00 37 1063.0
20260510012527 25 193 3.2 4.8 0.00 0.00 0.00 37 1062.8
20260510012024 25 143 3.2 4.8 0.00 0.00 0.00 36 1062.9
20260510011519 25 135 0.0 1.6 0.00 0.00 0.00 36 1062.6
20260510011015 25 134 0.0 1.6 0.00 0.00 0.00 35 1062.1
20260510010512 25 125 0.0 1.6 0.00 0.00 0.00 35 1062.0
20260510010009 25 123 0.0 4.8 0.00 0.00 0.00 35 1061.5
20260510005504 25 102 3.2 4.8 0.00 0.00 0.00 34 1061.0
20260510005002 25 125 1.6 1.6 0.00 0.00 0.00 34 1061.0
20260510004459 25 126 0.0 0.0 0.00 0.00 0.00 34 1060.4
20260510003957 25 126 0.0 0.0 0.00 0.00 0.00 36 1060.1
20260510003454 25 126 0.0 0.0 0.00 0.00 0.00 36 1059.5
20260510002949 25 126 0.0 0.0 0.00 0.00 0.00 35 1059.4
20260510002445 25 126 0.0 0.0 0.00 0.00 0.00 35 1059.1
20260510001942 26 126 0.0 0.0 0.00 0.00 0.00 35 1059.1
20260510001439 26 126 0.0 0.0 0.00 0.00 0.00 35 1058.7
20260510000937 26 126 0.0 0.0 0.00 0.00 0.00 32 1059.2
20260510000433 26 126 0.0 0.0 0.00 0.00 0.00 32 1059.0
20260509235929 27 126 0.0 0.0 0.00 0.00 0.00 32 1059.1
20260509235426 27 126 0.0 0.0 0.00 0.00 0.00 31 1059.1
20260509234922 27 126 0.0 0.0 0.00 0.00 0.00 29 1059.1
20260509234419 27 126 0.0 0.0 0.00 0.00 0.00 29 1059.0
20260509233918 27 126 0.0 1.6 0.00 0.00 0.00 30 1059.0
20260509233415 27 146 0.0 0.0 0.00 0.00 0.00 28 1059.1
20260509232911 28 146 0.0 3.2 0.00 0.00 0.00 25 1059.1
20260509232409 28 136 0.0 1.6 0.00 0.00 0.00 27 1059.2
20260509231904 29 138 0.0 1.6 0.00 0.00 0.00 25 1059.4
20260509231401 30 141 0.0 1.6 0.00 0.00 0.00 25 1059.0
20260509230859 28 143 0.0 1.6 0.00 0.00 0.00 30 1059.1
20260509230356 28 144 0.0 0.0 0.00 0.00 0.00 30 1059.2
20260509225851 28 144 0.0 1.6 0.00 0.00 0.00 26 1059.4
20260509225348 28 144 0.0 0.0 0.00 0.00 0.00 29 1059.7
20260509224844 28 144 0.0 0.0 0.00 0.00 0.00 28 1059.6
20260509224340 28 144 0.0 1.6 0.00 0.00 0.00 29 1059.6
20260509223837 28 144 0.0 0.0 0.00 0.00 0.00 27 1059.2
20260509223334 28 144 0.0 1.6 0.00 0.00 0.00 27 1059.6
20260509222831 28 144 0.0 1.6 0.00 0.00 0.00 27 1059.5
20260509222326 28 144 0.0 1.6 0.00 0.00 0.00 26 1059.4
20260509221822 28 153 1.6 3.2 0.00 0.00 0.00 25 1059.5
20260509221320 28 143 1.6 1.6 0.00 0.00 0.00 25 1059.2
20260509220819 28 144 0.0 1.6 0.00 0.00 0.00 24 1059.2
20260509220316 28 185 3.2 4.8 0.00 0.00 0.00 24 1059.4
20260509215811 29 159 1.6 3.2 0.00 0.00 0.00 23 1059.5
20260509215308 29 154 1.6 4.8 0.00 0.00 0.00 24 1059.5
20260509214805 30 138 1.6 3.2 0.00 0.00 0.00 25 1059.2
20260509214302 30 138 0.0 1.6 0.00 0.00 0.00 23 1059.5
20260509213759 31 157 3.2 4.8 0.00 0.00 0.00 23 1059.2
20260509213255 31 180 1.6 1.6 0.00 0.00 0.00 23 1059.2
20260509212752 31 180 3.2 6.4 0.00 0.00 0.00 23 1059.5
20260509212250 30 129 1.6 4.8 0.00 0.00 0.00 24 1059.4
20260509211745 30 163 3.2 3.2 0.00 0.00 0.00 24 1059.5
20260509211242 30 172 3.2 4.8 0.00 0.00 0.00 23 1059.6
20260509210738 31 166 4.8 12.9 0.00 0.00 0.00 23 1059.8
20260509210237 31 186 1.6 3.2 0.00 0.00 0.00 22 1059.7
20260509205736 31 141 3.2 4.8 0.00 0.00 0.00 22 1059.7
20260509205236 30 77 3.2 6.4 0.00 0.00 0.00 23 1059.9
20260509204732 29 129 0.0 3.2 0.00 0.00 0.00 24 1059.9
20260509204228 30 128 1.6 4.8 0.00 0.00 0.00 24 1060.0
20260509203724 30 124 0.0 1.6 0.00 0.00 0.00 25 1059.9
20260509203223 30 122 1.6 3.2 0.00 0.00 0.00 22 1060.0
20260509202718 30 18 3.2 3.2 0.00 0.00 0.00 22 1060.0
20260509202214 31 158 3.2 9.7 0.00 0.00 0.00 22 1060.2
20260509201708 31 141 1.6 4.8 0.00 0.00 0.00 23 1060.1
20260509201206 31 149 1.6 4.8 0.00 0.00 0.00 23 1060.1
20260509200702 30 130 1.6 1.6 0.00 0.00 0.00 26 1060.1
20260509200157 30 28 3.2 6.4 0.00 0.00 0.00 24 1060.3
20260509195654 30 113 1.6 4.8 0.00 0.00 0.00 23 1060.2
20260509195149 30 173 3.2 3.2 0.00 0.00 0.00 25 1060.5
20260509194648 30 134 0.0 3.2 0.00 0.00 0.00 24 1060.7
20260509194146 30 181 4.8 6.4 0.00 0.00 0.00 23 1060.6
20260509193641 30 135 1.6 3.2 0.00 0.00 0.00 25 1060.5
20260509193137 30 99 1.6 3.2 0.00 0.00 0.00 23 1060.7
20260509192634 30 155 1.6 1.6 0.00 0.00 0.00 25 1060.8
20260509192130 30 172 1.6 3.2 0.00 0.00 0.00 26 1060.9
20260509191629 29 136 0.0 1.6 0.00 0.00 0.00 25 1060.9
20260509191126 29 155 0.0 1.6 0.00 0.00 0.00 28 1060.9
20260509190622 28 307 3.2 3.2 0.00 0.00 0.00 25 1060.9
20260509190120 28 156 1.6 4.8 0.00 0.00 0.00 27 1060.8
20260509185618 28 128 6.4 9.7 0.00 0.00 0.00 25 1060.7
20260509185113 28 153 1.6 3.2 0.00 0.00 0.00 28 1060.9
20260509184612 28 136 0.0 3.2 0.00 0.00 0.00 27 1061.2
20260509184108 28 126 3.2 6.4 0.00 0.00 0.00 26 1061.0
20260509183603 28 16 6.4 11.3 0.00 0.00 0.00 26 1061.2
20260509183059 28 207 1.6 6.4 0.00 0.00 0.00 27 1061.1
20260509182556 28 122 0.0 4.8 0.00 0.00 0.00 27 1061.1
20260509182053 28 134 3.2 4.8 0.00 0.00 0.00 28 1061.3
20260509181551 28 249 4.8 6.4 0.00 0.00 0.00 26 1061.6
20260509181048 28 306 3.2 4.8 0.00 0.00 0.00 28 1061.6
20260509180543 27 167 1.6 6.4 0.00 0.00 0.00 28 1061.6
20260509180042 28 327 3.2 6.4 0.00 0.00 0.00 27 1061.6
20260509175537 28 134 3.2 3.2 0.00 0.00 0.00 30 1061.7
20260509175034 27 160 6.4 11.3 0.00 0.00 0.00 30 1061.7
20260509174530 27 344 8.0 11.3 0.00 0.00 0.00 29 1061.7
20260509174026 27 141 6.4 6.4 0.00 0.00 0.00 30 1061.9
20260509173520 28 182 3.2 11.3 0.00 0.00 0.00 30 1061.9
20260509173017 27 66 0.0 6.4 0.00 0.00 0.00 31 1062.1
20260509172514 27 128 4.8 6.4 0.00 0.00 0.00 31 1062.3
20260509172009 27 273 6.4 6.4 0.00 0.00 0.00 31 1062.5
20260509171506 26 148 3.2 11.3 0.00 0.00 0.00 33 1062.7
20260509171002 26 183 3.2 3.2 0.00 0.00 0.00 35 1062.4
20260509170458 25 309 1.6 3.2 0.00 0.00 0.00 36 1062.5
20260509165954 25 213 3.2 4.8 0.00 0.00 0.00 36 1062.4
20260509165453 26 147 6.4 12.9 0.00 0.00 0.00 35 1062.5
20260509164949 26 134 3.2 9.7 0.00 0.00 0.00 35 1062.7
20260509164444 26 139 1.6 3.2 0.00 0.00 0.00 37 1062.6
20260509163941 26 181 3.2 12.9 0.00 0.00 0.00 37 1062.6
20260509163438 25 304 1.6 4.8 0.00 0.00 0.00 39 1062.7
20260509162937 25 159 1.6 9.7 0.00 0.00 0.00 39 1063.0
20260509162436 25 129 1.6 9.7 0.00 0.00 0.00 39 1062.7
20260509161932 24 204 1.6 9.7 0.00 0.00 0.00 40 1062.7
20260509161428 25 320 1.6 4.8 0.00 0.00 0.00 39 1062.7
20260509160924 25 196 3.2 11.3 0.00 0.00 0.00 39 1062.6
20260509160420 24 211 4.8 6.4 0.00 0.00 0.00 40 1062.5
20260509155915 24 140 1.6 4.8 0.00 0.00 0.00 41 1062.4
20260509155412 24 179 1.6 4.8 0.00 0.00 0.00 40 1062.6
20260509154908 24 175 3.2 9.7 0.00 0.00 0.00 41 1062.5
20260509154405 24 137 3.2 9.7 0.00 0.00 0.00 41 1062.6
20260509153901 24 293 1.6 6.4 0.00 0.00 0.00 40 1062.4
20260509153359 25 239 1.6 4.8 0.00 0.00 0.00 40 1062.3
20260509152856 25 189 4.8 6.4 0.00 0.00 0.00 42 1062.3
20260509152352 25 131 1.6 6.4 0.00 0.00 0.00 43 1062.5
20260509151849 24 131 1.6 3.2 0.00 0.00 0.00 43 1062.6
20260509151345 23 135 3.2 6.4 0.00 0.00 0.00 46 1062.6
20260509150843 23 162 1.6 3.2 0.00 0.00 0.00 49 1062.5
20260509150341 22 126 0.0 3.2 0.00 0.00 0.00 49 1062.4
20260509145838 22 208 1.6 6.4 0.00 0.00 0.00 51 1062.3
20260509145332 22 134 1.6 3.2 0.00 0.00 0.00 52 1062.4
20260509144829 21 305 4.8 4.8 0.00 0.00 0.00 52 1062.3
20260509144326 21 144 1.6 4.8 0.00 0.00 0.00 53 1062.3